Flag for Switzerland Weather past 2 weeks in Winterthur, Switzerland

43 °F

Passing clouds.

Feels Like: 43 °F
Forecast: 39 / 45 °F
Wind: 2 mph from Southeast

Location: Zurich-Kloten

Current Time: Oct 14, 2015 at 7:06:11 AM

Latest Report: Oct 14, 2015 at 6:20 AM

Visibility: 4 mi

Pressure: 29.98 "Hg

Humidity: 93%

Dew point: 41 °F

Location of WinterthurLocation

Historic Weather in Winterthur — Graph


Winterthur temperature yesterday

Maximum temperature yesterday: 52 °F (at 1:50 PM)
Minimum temperature yesterday: 43 °F (at 6:20 AM)
Average temperature yesterday: 47 °F

Past Weeks' High & Low Weather Summary

High70 °F (Oct 3, 3:20 PM)100% (Sep 30, 6:20 AM)30.36 "Hg (Sep 30, 6:20 AM)
Low37 °F (Oct 1, 4:20 AM)40% (Oct 3, 3:50 PM)29.74 "Hg (Oct 6, 11:50 AM)
Average53 °F80%30.05 "Hg
* Reported Sep 29 5:20 AM — Oct 14 5:20 AM, Winterthur, Weather by CustomWeather, © 2015

Note: Actual official high and low records may vary slightly from our data, if they occured in-between our weather recording intervals... More about our weather records


Winterthur weather history for previous 24 hours

Time TempWeatherWind HumidityBarometerVisibility
5:20 AM
Wed, Oct 14
43 °FFog.2 mph93%30.01 "Hg3 mi
4:50 AM43 °FFog.2 mph93%30.01 "Hg3 mi
4:20 AM43 °FFog.2 mph93%30.01 "Hg3 mi
3:50 AM43 °FFog.3 mph93%30.01 "Hg3 mi
3:20 AM43 °FPassing clouds.5 mph93%30.01 "Hg4 mi
2:50 AM43 °FPassing clouds.5 mph87%30.01 "Hg4 mi
1:50 AM41 °FPassing clouds.3 mph100%30.04 "Hg4 mi
1:20 AM43 °FPassing clouds.No wind93%30.04 "Hg4 mi
12:50 AM41 °FPartly cloudy.1 mph100%30.01 "Hg4 mi
11:20 PM
Tue, Oct 13
45 °FPassing clouds.3 mph87%30.01 "Hg5 mi
10:50 PM45 °FPassing clouds.3 mph87%30.01 "Hg4 mi
10:20 PM43 °FPassing clouds.3 mph93%30.01 "Hg4 mi
9:50 PM45 °FLight rain. Passing clouds.6 mph87%30.01 "Hg4 mi
9:20 PM45 °FLight rain. Fog.6 mph87%30.01 "Hg3 mi
8:50 PM45 °FLight rain. Fog.6 mph93%29.98 "Hg3 mi
8:20 PM45 °FRain. Passing clouds.14 mph93%29.98 "Hg3 mi
7:50 PM46 °FLight rain. Fog.13 mph87%29.95 "Hg3 mi
7:20 PM48 °FLight rain. Partly sunny.9 mph82%29.95 "Hg4 mi
6:50 PM48 °FRain. Partly sunny.8 mph87%29.92 "Hg3 mi
6:20 PM48 °FLight rain. Partly sunny.6 mph94%29.92 "Hg4 mi
5:50 PM50 °FLight rain. Partly sunny.5 mph88%29.92 "Hg4 mi
5:20 PM50 °FLight rain. Partly sunny.3 mph94%29.92 "Hg4 mi
4:50 PM50 °FLight rain. Fog.3 mph94%29.92 "Hg3 mi
4:20 PM50 °FLight rain. Fog.3 mph94%29.92 "Hg3 mi
3:50 PM50 °FLight rain. Fog.3 mph94%29.92 "Hg3 mi
3:20 PM50 °FLight rain. Fog.5 mph94%29.92 "Hg3 mi
2:50 PM50 °FLight rain. Fog.2 mph94%29.92 "Hg3 mi
2:20 PM52 °FLight rain. Fog.2 mph82%29.92 "Hg3 mi
1:50 PM52 °FFog.3 mph82%29.92 "Hg3 mi
1:20 PM50 °FFog.1 mph88%29.92 "Hg3 mi
12:50 PM50 °FFog.No wind88%29.92 "Hg3 mi
12:20 PM50 °FFog.1 mph88%29.92 "Hg3 mi
11:50 AM48 °FFog.1 mph94%29.92 "Hg3 mi
11:20 AM48 °FFog.2 mph87%29.92 "Hg3 mi
10:50 AM46 °FFog.2 mph93%29.92 "Hg3 mi
10:20 AM46 °FFog.1 mph93%29.92 "Hg3 mi
9:50 AM46 °FFog.3 mph93%29.92 "Hg3 mi
9:20 AM45 °FFog.2 mph93%29.92 "Hg3 mi
8:50 AM45 °FFog.2 mph100%29.92 "Hg3 mi
8:20 AM45 °FFog.6 mph93%29.92 "Hg3 mi
7:50 AM43 °FFog.5 mph100%29.92 "Hg3 mi
7:20 AM43 °FFog.5 mph93%29.92 "Hg3 mi
Weather by CustomWeather, © 2015

See weather overviewHow to use our weather pages